Year,Month,Day,Hour,Minute,Value (Times are PST for temperature in C)
2011,08,11,00,00,11.60
2011,08,11,00,01,11.60
2011,08,11,00,02,11.60
2011,08,11,00,03,11.60
2011,08,11,00,04,11.50
2011,08,11,00,05,11.50
2011,08,11,00,06,11.50
2011,08,11,00,07,11.50
2011,08,11,00,08,11.50
2011,08,11,00,09,11.50
2011,08,11,00,10,11.50
2011,08,11,00,11,11.40
2011,08,11,00,12,11.40
2011,08,11,00,13,11.40
2011,08,11,00,14,11.40
2011,08,11,00,15,11.40
2011,08,11,00,16,11.40
2011,08,11,00,17,11.30
2011,08,11,00,18,11.30
2011,08,11,00,19,11.30
2011,08,11,00,20,11.30
2011,08,11,00,21,11.30
2011,08,11,00,22,11.30
2011,08,11,00,23,11.30
2011,08,11,00,24,11.30
2011,08,11,00,25,11.30
2011,08,11,00,26,11.30
2011,08,11,00,27,11.30
2011,08,11,00,28,11.20
2011,08,11,00,29,11.20
2011,08,11,00,30,11.20
2011,08,11,00,31,11.20
2011,08,11,00,32,11.20
2011,08,11,00,33,11.20
2011,08,11,00,34,11.20
2011,08,11,00,35,11.20
2011,08,11,00,36,11.20
2011,08,11,00,37,11.20
2011,08,11,00,38,11.20
2011,08,11,00,39,11.20
2011,08,11,00,40,11.20
2011,08,11,00,41,11.20
2011,08,11,00,42,11.20
2011,08,11,00,43,11.20
2011,08,11,00,44,11.20
2011,08,11,00,45,11.10
2011,08,11,00,46,11.10
2011,08,11,00,47,11.10
2011,08,11,00,48,11.10
2011,08,11,00,49,11.10
2011,08,11,00,50,11.10
2011,08,11,00,51,11.10
2011,08,11,00,52,11.10
2011,08,11,00,53,11.10
2011,08,11,00,54,11.10
2011,08,11,00,55,11.10
2011,08,11,00,56,11.00
2011,08,11,00,57,11.00
2011,08,11,00,58,11.00
2011,08,11,00,59,11.00
2011,08,11,01,00,11.00
2011,08,11,01,01,11.00
2011,08,11,01,02,10.90
2011,08,11,01,03,10.90
2011,08,11,01,04,10.90
2011,08,11,01,05,10.90
2011,08,11,01,06,10.90
2011,08,11,01,07,10.90
2011,08,11,01,08,10.90
2011,08,11,01,09,10.90
2011,08,11,01,10,10.90
2011,08,11,01,11,10.90
2011,08,11,01,12,10.90
2011,08,11,01,13,10.90
2011,08,11,01,14,10.90
2011,08,11,01,15,10.90
2011,08,11,01,16,10.80
2011,08,11,01,17,10.80
2011,08,11,01,18,10.80
2011,08,11,01,19,10.80
2011,08,11,01,20,10.80
2011,08,11,01,21,10.80
2011,08,11,01,22,10.80
2011,08,11,01,23,10.80
2011,08,11,01,24,10.80
2011,08,11,01,25,10.80
2011,08,11,01,26,10.70
2011,08,11,01,27,10.70
2011,08,11,01,28,10.70
2011,08,11,01,29,10.70
2011,08,11,01,30,10.70
2011,08,11,01,31,10.70
2011,08,11,01,32,10.70
2011,08,11,01,33,10.60
2011,08,11,01,34,10.60
2011,08,11,01,35,10.60
2011,08,11,01,36,10.60
2011,08,11,01,37,10.60
2011,08,11,01,38,10.60
2011,08,11,01,39,10.50
2011,08,11,01,40,10.50
2011,08,11,01,41,10.50
2011,08,11,01,42,10.40
2011,08,11,01,43,10.40
2011,08,11,01,44,10.40
2011,08,11,01,45,10.40
2011,08,11,01,46,10.40
2011,08,11,01,47,10.40
2011,08,11,01,48,10.40
2011,08,11,01,49,10.40
2011,08,11,01,50,10.40
2011,08,11,01,51,10.30
2011,08,11,01,52,10.30
2011,08,11,01,53,10.30
2011,08,11,01,54,10.30
2011,08,11,01,55,10.30
2011,08,11,01,56,10.30
2011,08,11,01,57,10.30
2011,08,11,01,58,10.20
2011,08,11,01,59,10.20
2011,08,11,02,00,10.20
2011,08,11,02,01,10.20
2011,08,11,02,02,10.20
2011,08,11,02,03,10.10
2011,08,11,02,04,10.10
2011,08,11,02,05,10.10
2011,08,11,02,06,10.10
2011,08,11,02,07,10.10
2011,08,11,02,08,10.10
2011,08,11,02,09,10.10
2011,08,11,02,10,10.00
2011,08,11,02,11,10.00
2011,08,11,02,12,10.00
2011,08,11,02,13,10.00
2011,08,11,02,14,9.90
2011,08,11,02,15,9.90
2011,08,11,02,16,9.90
2011,08,11,02,17,9.90
2011,08,11,02,18,9.90
2011,08,11,02,19,9.90
2011,08,11,02,20,9.90
2011,08,11,02,21,9.90
2011,08,11,02,22,9.90
2011,08,11,02,23,9.90
2011,08,11,02,24,9.90
2011,08,11,02,25,9.90
2011,08,11,02,26,9.90
2011,08,11,02,27,9.90
2011,08,11,02,28,9.80
2011,08,11,02,29,9.80
2011,08,11,02,30,9.80
2011,08,11,02,31,9.80
2011,08,11,02,32,9.80
2011,08,11,02,33,9.80
2011,08,11,02,34,9.80
2011,08,11,02,35,9.80
2011,08,11,02,36,9.80
2011,08,11,02,37,9.70
2011,08,11,02,38,9.70
2011,08,11,02,39,9.70
2011,08,11,02,40,9.70
2011,08,11,02,41,9.70
2011,08,11,02,42,9.70
2011,08,11,02,43,9.70
2011,08,11,02,44,9.70
2011,08,11,02,45,9.70
2011,08,11,02,46,9.70
2011,08,11,02,47,9.70
2011,08,11,02,48,9.70
2011,08,11,02,49,9.70
2011,08,11,02,50,9.70
2011,08,11,02,51,9.70
2011,08,11,02,52,9.70
2011,08,11,02,53,9.70
2011,08,11,02,54,9.70
2011,08,11,02,55,9.70
2011,08,11,02,56,9.70
2011,08,11,02,57,9.70
2011,08,11,02,58,9.70
2011,08,11,02,59,9.70
2011,08,11,03,00,9.70
2011,08,11,03,01,9.70
2011,08,11,03,02,9.70
2011,08,11,03,03,9.70
2011,08,11,03,04,9.70
2011,08,11,03,05,9.70
2011,08,11,03,06,9.70
2011,08,11,03,07,9.70
2011,08,11,03,08,9.70
2011,08,11,03,09,9.70
2011,08,11,03,10,9.60
2011,08,11,03,11,9.60
2011,08,11,03,12,9.60
2011,08,11,03,13,9.60
2011,08,11,03,14,9.60
2011,08,11,03,15,9.60
2011,08,11,03,16,9.60
2011,08,11,03,17,9.60
2011,08,11,03,18,9.60
2011,08,11,03,19,9.60
2011,08,11,03,20,9.60
2011,08,11,03,21,9.60
2011,08,11,03,22,9.60
2011,08,11,03,23,9.60
2011,08,11,03,24,9.60
2011,08,11,03,25,9.60
2011,08,11,03,26,9.60
2011,08,11,03,27,9.60
2011,08,11,03,28,9.60
2011,08,11,03,29,9.60
2011,08,11,03,30,9.60
2011,08,11,03,31,9.60
2011,08,11,03,32,9.60
2011,08,11,03,33,9.60
2011,08,11,03,34,9.60
2011,08,11,03,35,9.60
2011,08,11,03,36,9.50
2011,08,11,03,37,9.50
2011,08,11,03,38,9.50
2011,08,11,03,39,9.50
2011,08,11,03,40,9.50
2011,08,11,03,41,9.50
2011,08,11,03,42,9.40
2011,08,11,03,43,9.40
2011,08,11,03,44,9.40
2011,08,11,03,45,9.40
2011,08,11,03,46,9.40
2011,08,11,03,47,9.40
2011,08,11,03,48,9.40
2011,08,11,03,49,9.40
2011,08,11,03,50,9.40
2011,08,11,03,51,9.40
2011,08,11,03,52,9.40
2011,08,11,03,53,9.40
2011,08,11,03,54,9.40
2011,08,11,03,55,9.40
2011,08,11,03,56,9.40
2011,08,11,03,57,9.40
2011,08,11,03,58,9.40
2011,08,11,03,59,9.40
2011,08,11,04,00,9.30
2011,08,11,04,01,9.30
2011,08,11,04,02,9.30
2011,08,11,04,03,9.30
2011,08,11,04,04,9.30
2011,08,11,04,05,9.30
2011,08,11,04,06,9.30
2011,08,11,04,07,9.30
2011,08,11,04,08,9.30
2011,08,11,04,09,9.30
2011,08,11,04,10,9.30
2011,08,11,04,11,9.30
2011,08,11,04,12,9.30
2011,08,11,04,13,9.30
2011,08,11,04,14,9.30
2011,08,11,04,15,9.30
2011,08,11,04,16,9.30
2011,08,11,04,17,9.30
2011,08,11,04,18,9.30
2011,08,11,04,19,9.20
2011,08,11,04,20,9.20
2011,08,11,04,21,9.20
2011,08,11,04,22,9.20
2011,08,11,04,23,9.20
2011,08,11,04,24,9.20
2011,08,11,04,25,9.20
2011,08,11,04,26,9.20
2011,08,11,04,27,9.20
2011,08,11,04,28,9.20
2011,08,11,04,29,9.20
2011,08,11,04,30,9.20
2011,08,11,04,31,9.20
2011,08,11,04,32,9.20
2011,08,11,04,33,9.20
2011,08,11,04,34,9.20
2011,08,11,04,35,9.20
2011,08,11,04,36,9.20
2011,08,11,04,37,9.20
2011,08,11,04,38,9.20
2011,08,11,04,39,9.20
2011,08,11,04,40,9.20
2011,08,11,04,41,9.20
2011,08,11,04,42,9.20
2011,08,11,04,43,9.20
2011,08,11,04,44,9.20
2011,08,11,04,45,9.20
2011,08,11,04,46,9.20
2011,08,11,04,47,9.20
2011,08,11,04,48,9.20
2011,08,11,04,49,9.20
2011,08,11,04,50,9.20
2011,08,11,04,51,9.20
2011,08,11,04,52,9.20
2011,08,11,04,53,9.20
2011,08,11,04,54,9.20
2011,08,11,04,55,9.20
2011,08,11,04,56,9.20
2011,08,11,04,57,9.20
2011,08,11,04,58,9.20
2011,08,11,04,59,9.20
2011,08,11,05,00,9.20
2011,08,11,05,01,9.20
2011,08,11,05,02,9.20
2011,08,11,05,03,9.20
2011,08,11,05,04,9.20
2011,08,11,05,05,9.20
2011,08,11,05,06,9.20
2011,08,11,05,07,9.20
2011,08,11,05,08,9.20
2011,08,11,05,09,9.20
2011,08,11,05,10,9.20
2011,08,11,05,11,9.20
2011,08,11,05,12,9.20
2011,08,11,05,13,9.20
2011,08,11,05,14,9.20
2011,08,11,05,15,9.20
2011,08,11,05,16,9.20
2011,08,11,05,17,9.20
2011,08,11,05,18,9.20
2011,08,11,05,19,9.20
2011,08,11,05,20,9.20
2011,08,11,05,21,9.20
2011,08,11,05,22,9.20
2011,08,11,05,23,9.20
2011,08,11,05,24,9.20
2011,08,11,05,25,9.20
2011,08,11,05,26,9.20
2011,08,11,05,27,9.20
2011,08,11,05,28,9.20
2011,08,11,05,29,9.20
2011,08,11,05,30,9.20
2011,08,11,05,31,9.20
2011,08,11,05,32,9.20
2011,08,11,05,33,9.20
2011,08,11,05,34,9.20
2011,08,11,05,35,9.20
2011,08,11,05,36,9.20
2011,08,11,05,37,9.20
2011,08,11,05,38,9.20
2011,08,11,05,39,9.20
2011,08,11,05,40,9.20
2011,08,11,05,41,9.20
2011,08,11,05,42,9.20
2011,08,11,05,43,9.20
2011,08,11,05,44,9.20
2011,08,11,05,45,9.20
2011,08,11,05,46,9.10
2011,08,11,05,47,9.10
2011,08,11,05,48,9.10
2011,08,11,05,49,9.10
2011,08,11,05,50,9.10
2011,08,11,05,51,9.00
2011,08,11,05,52,9.00
2011,08,11,05,53,9.00
2011,08,11,05,54,9.00
2011,08,11,05,55,8.90
2011,08,11,05,56,8.90
2011,08,11,05,57,8.90
2011,08,11,05,58,8.90
2011,08,11,05,59,8.90
2011,08,11,06,00,8.90
2011,08,11,06,01,8.90
2011,08,11,06,02,8.90
2011,08,11,06,03,8.80
2011,08,11,06,04,8.80
2011,08,11,06,05,8.80
2011,08,11,06,06,8.80
2011,08,11,06,07,8.80
2011,08,11,06,08,8.80
2011,08,11,06,09,8.80
2011,08,11,06,10,8.80
2011,08,11,06,11,8.80
2011,08,11,06,12,8.80
2011,08,11,06,13,8.80
2011,08,11,06,14,8.80
2011,08,11,06,15,8.80
2011,08,11,06,16,8.80
2011,08,11,06,17,8.80
2011,08,11,06,18,8.80
2011,08,11,06,19,8.80
2011,08,11,06,20,8.80
2011,08,11,06,21,8.90
2011,08,11,06,22,8.90
2011,08,11,06,23,8.90
2011,08,11,06,24,8.90
2011,08,11,06,25,8.90
2011,08,11,06,26,8.90
2011,08,11,06,27,8.90
2011,08,11,06,28,8.90
2011,08,11,06,29,8.90
2011,08,11,06,30,8.90
2011,08,11,06,31,8.90
2011,08,11,06,32,9.00
2011,08,11,06,33,9.00
2011,08,11,06,34,9.00
2011,08,11,06,35,9.00
2011,08,11,06,36,9.00
2011,08,11,06,37,9.00
2011,08,11,06,38,9.10
2011,08,11,06,39,9.10
2011,08,11,06,40,9.10
2011,08,11,06,41,9.10
2011,08,11,06,42,9.10
2011,08,11,06,43,9.10
2011,08,11,06,44,9.20
2011,08,11,06,45,9.20
2011,08,11,06,46,9.20
2011,08,11,06,47,9.20
2011,08,11,06,48,9.30
2011,08,11,06,49,9.30
2011,08,11,06,50,9.30
2011,08,11,06,51,9.40
2011,08,11,06,52,9.40
2011,08,11,06,53,9.50
2011,08,11,06,54,9.50
2011,08,11,06,55,9.60
2011,08,11,06,56,9.60
2011,08,11,06,57,9.60
2011,08,11,06,58,9.70
2011,08,11,06,59,9.70
2011,08,11,07,00,9.70
2011,08,11,07,01,9.70
2011,08,11,07,02,9.80
2011,08,11,07,03,9.80
2011,08,11,07,04,9.80
2011,08,11,07,05,9.80
2011,08,11,07,06,9.80
2011,08,11,07,07,9.80
2011,08,11,07,08,9.90
2011,08,11,07,09,9.90
2011,08,11,07,10,9.90
2011,08,11,07,11,9.90
2011,08,11,07,12,9.90
2011,08,11,07,13,9.90
2011,08,11,07,14,10.00
2011,08,11,07,15,10.00
2011,08,11,07,16,10.00
2011,08,11,07,17,10.10
2011,08,11,07,18,10.10
2011,08,11,07,19,10.10
2011,08,11,07,20,10.10
2011,08,11,07,21,10.20
2011,08,11,07,22,10.20
2011,08,11,07,23,10.20
2011,08,11,07,24,10.30
2011,08,11,07,25,10.30
2011,08,11,07,26,10.30
2011,08,11,07,27,10.40
2011,08,11,07,28,10.40
2011,08,11,07,29,10.40
2011,08,11,07,30,10.50
2011,08,11,07,31,10.50
2011,08,11,07,32,10.60
2011,08,11,07,33,10.60
2011,08,11,07,34,10.60
2011,08,11,07,35,10.70
2011,08,11,07,36,10.70
2011,08,11,07,37,10.70
2011,08,11,07,38,10.80
2011,08,11,07,39,10.80
2011,08,11,07,40,10.80
2011,08,11,07,41,10.80
2011,08,11,07,42,10.90
2011,08,11,07,43,10.90
2011,08,11,07,44,11.00
2011,08,11,07,45,11.00
2011,08,11,07,46,11.10
2011,08,11,07,47,11.10
2011,08,11,07,48,11.10
2011,08,11,07,49,11.20
2011,08,11,07,50,11.20
2011,08,11,07,51,11.30
2011,08,11,07,52,11.30
2011,08,11,07,53,11.30
2011,08,11,07,54,11.30
2011,08,11,07,55,11.40
2011,08,11,07,56,11.40
2011,08,11,07,57,11.40
2011,08,11,07,58,11.40
2011,08,11,07,59,11.50
2011,08,11,08,00,11.50
2011,08,11,08,01,11.60
2011,08,11,08,02,11.60
2011,08,11,08,03,11.60
2011,08,11,08,04,11.60
2011,08,11,08,05,11.70
2011,08,11,08,06,11.70
2011,08,11,08,07,11.70
2011,08,11,08,08,11.70
2011,08,11,08,09,11.80
2011,08,11,08,10,11.80
2011,08,11,08,11,11.90
2011,08,11,08,12,11.90
2011,08,11,08,13,12.00
2011,08,11,08,14,12.00
2011,08,11,08,15,12.10
2011,08,11,08,16,12.20
2011,08,11,08,17,12.20
2011,08,11,08,18,12.20
2011,08,11,08,19,12.30
2011,08,11,08,20,12.30
2011,08,11,08,21,12.40
2011,08,11,08,22,12.50
2011,08,11,08,23,12.50
2011,08,11,08,24,12.60
2011,08,11,08,25,12.70
2011,08,11,08,26,12.70
2011,08,11,08,27,12.80
2011,08,11,08,28,12.80
2011,08,11,08,29,12.90
2011,08,11,08,30,12.90
2011,08,11,08,31,13.00
2011,08,11,08,32,13.10
2011,08,11,08,33,13.10
2011,08,11,08,34,13.20
2011,08,11,08,35,13.20
2011,08,11,08,36,13.30
2011,08,11,08,37,13.30
2011,08,11,08,38,13.40
2011,08,11,08,39,13.40
2011,08,11,08,40,13.50
2011,08,11,08,41,13.60
2011,08,11,08,42,13.60
2011,08,11,08,43,13.70
2011,08,11,08,44,13.70
2011,08,11,08,45,13.80
2011,08,11,08,46,13.80
2011,08,11,08,47,13.90
2011,08,11,08,48,14.00
2011,08,11,08,49,14.00
2011,08,11,08,50,14.10
2011,08,11,08,51,14.10
2011,08,11,08,52,14.20
2011,08,11,08,53,14.20
2011,08,11,08,54,14.30
2011,08,11,08,55,14.30
2011,08,11,08,56,14.40
2011,08,11,08,57,14.40
2011,08,11,08,58,14.40
2011,08,11,08,59,14.50
2011,08,11,09,00,14.50
2011,08,11,09,01,14.60
2011,08,11,09,02,14.60
2011,08,11,09,03,14.70
2011,08,11,09,04,14.70
2011,08,11,09,05,14.80
2011,08,11,09,06,14.80
2011,08,11,09,07,14.90
2011,08,11,09,08,14.90
2011,08,11,09,09,14.90
2011,08,11,09,10,14.90
2011,08,11,09,11,14.90
2011,08,11,09,12,14.90
2011,08,11,09,13,15.00
2011,08,11,09,14,15.00
2011,08,11,09,15,15.00
2011,08,11,09,16,15.00
2011,08,11,09,17,15.00
2011,08,11,09,18,15.00
2011,08,11,09,19,15.00
2011,08,11,09,20,15.00
2011,08,11,09,21,15.10
2011,08,11,09,22,15.20
2011,08,11,09,23,15.30
2011,08,11,09,24,15.30
2011,08,11,09,25,15.30
2011,08,11,09,26,15.40
2011,08,11,09,27,15.40
2011,08,11,09,28,15.40
2011,08,11,09,29,15.50
2011,08,11,09,30,15.50
2011,08,11,09,31,15.60
2011,08,11,09,32,15.60
2011,08,11,09,33,15.70
2011,08,11,09,34,15.70
2011,08,11,09,35,15.80
2011,08,11,09,36,15.80
2011,08,11,09,37,15.80
2011,08,11,09,38,15.90
2011,08,11,09,39,15.90
2011,08,11,09,40,15.90
2011,08,11,09,41,15.90
2011,08,11,09,42,16.00
2011,08,11,09,43,16.00
2011,08,11,09,44,16.10
2011,08,11,09,45,16.10
2011,08,11,09,46,16.10
2011,08,11,09,47,16.10
2011,08,11,09,48,16.10
2011,08,11,09,49,16.10
2011,08,11,09,50,16.20
2011,08,11,09,51,16.20
2011,08,11,09,52,16.20
2011,08,11,09,53,16.30
2011,08,11,09,54,16.30
2011,08,11,09,55,16.40
2011,08,11,09,56,16.40
2011,08,11,09,57,16.40
2011,08,11,09,58,16.50
2011,08,11,09,59,16.50
2011,08,11,10,00,16.50
2011,08,11,10,01,16.60
2011,08,11,10,02,16.60
2011,08,11,10,03,16.70
2011,08,11,10,04,16.70
2011,08,11,10,05,16.70
2011,08,11,10,06,16.80
2011,08,11,10,07,16.80
2011,08,11,10,08,16.80
2011,08,11,10,09,16.90
2011,08,11,10,10,16.90
2011,08,11,10,11,17.00
2011,08,11,10,12,17.10
2011,08,11,10,13,17.10
2011,08,11,10,14,17.10
2011,08,11,10,15,17.10
2011,08,11,10,16,17.20
2011,08,11,10,17,17.20
2011,08,11,10,18,17.30
2011,08,11,10,19,17.30
2011,08,11,10,20,17.30
2011,08,11,10,21,17.40
2011,08,11,10,22,17.40
2011,08,11,10,23,17.40
2011,08,11,10,24,17.30
2011,08,11,10,25,17.30
2011,08,11,10,26,17.30
2011,08,11,10,27,17.40
2011,08,11,10,28,17.40
2011,08,11,10,29,17.50
2011,08,11,10,30,17.50
2011,08,11,10,31,17.50
2011,08,11,10,32,17.60
2011,08,11,10,33,17.60
2011,08,11,10,34,17.60
2011,08,11,10,35,17.60
2011,08,11,10,36,17.60
2011,08,11,10,37,17.60
2011,08,11,10,38,17.70
2011,08,11,10,39,17.70
2011,08,11,10,40,17.70
2011,08,11,10,41,17.60
2011,08,11,10,42,17.60
2011,08,11,10,43,17.50
2011,08,11,10,44,17.50
2011,08,11,10,45,17.50
2011,08,11,10,46,17.40
2011,08,11,10,47,17.40
2011,08,11,10,48,17.40
2011,08,11,10,49,17.40
2011,08,11,10,50,17.40
2011,08,11,10,51,17.40
2011,08,11,10,52,17.50
2011,08,11,10,53,17.50
2011,08,11,10,54,17.50
2011,08,11,10,55,17.60
2011,08,11,10,56,17.60
2011,08,11,10,57,17.60
2011,08,11,10,58,17.70
2011,08,11,10,59,17.70
2011,08,11,11,00,17.70
2011,08,11,11,01,17.80
2011,08,11,11,02,17.80
2011,08,11,11,03,17.90
2011,08,11,11,04,17.90
2011,08,11,11,05,18.00
2011,08,11,11,06,18.10
2011,08,11,11,07,18.10
2011,08,11,11,08,18.20
2011,08,11,11,09,18.30
2011,08,11,11,10,18.30
2011,08,11,11,11,18.40
2011,08,11,11,12,18.50
2011,08,11,11,13,18.60
2011,08,11,11,14,18.70
2011,08,11,11,15,18.70
2011,08,11,11,16,18.70
2011,08,11,11,17,18.70
2011,08,11,11,18,18.70
2011,08,11,11,19,18.70
2011,08,11,11,20,18.70
2011,08,11,11,21,18.70
2011,08,11,11,22,18.70
2011,08,11,11,23,18.70
2011,08,11,11,24,18.70
2011,08,11,11,25,18.70
2011,08,11,11,26,18.80
2011,08,11,11,27,18.80
2011,08,11,11,28,18.80
2011,08,11,11,29,18.90
2011,08,11,11,30,18.90
2011,08,11,11,31,18.90
2011,08,11,11,32,19.00
2011,08,11,11,33,19.10
2011,08,11,11,34,19.10
2011,08,11,11,35,19.20
2011,08,11,11,36,19.20
2011,08,11,11,37,19.20
2011,08,11,11,38,19.30
2011,08,11,11,39,19.30
2011,08,11,11,40,19.30
2011,08,11,11,41,19.30
2011,08,11,11,42,19.30
2011,08,11,11,43,19.40
2011,08,11,11,44,19.40
2011,08,11,11,45,19.40
2011,08,11,11,46,19.40
2011,08,11,11,47,19.40
2011,08,11,11,48,19.40
2011,08,11,11,49,19.40
2011,08,11,11,50,19.30
2011,08,11,11,51,19.30
2011,08,11,11,52,19.30
2011,08,11,11,53,19.30
2011,08,11,11,54,19.30
2011,08,11,11,55,19.30
2011,08,11,11,56,19.40
2011,08,11,11,57,19.40
2011,08,11,11,58,19.50
2011,08,11,11,59,19.50
2011,08,11,12,00,19.60
2011,08,11,12,01,19.70
2011,08,11,12,02,19.70
2011,08,11,12,03,19.80
2011,08,11,12,04,19.90
2011,08,11,12,05,19.90
2011,08,11,12,06,19.90
2011,08,11,12,07,20.00
2011,08,11,12,08,20.00
2011,08,11,12,09,20.00
2011,08,11,12,10,20.00
2011,08,11,12,11,20.00
2011,08,11,12,12,20.00
2011,08,11,12,13,19.90
2011,08,11,12,14,19.90
2011,08,11,12,15,19.90
2011,08,11,12,16,19.80
2011,08,11,12,17,19.80
2011,08,11,12,18,19.80
2011,08,11,12,19,19.90
2011,08,11,12,20,19.90
2011,08,11,12,21,20.00
2011,08,11,12,22,20.00
2011,08,11,12,23,20.10
2011,08,11,12,24,20.20
2011,08,11,12,25,20.20
2011,08,11,12,26,20.30
2011,08,11,12,27,20.40
2011,08,11,12,28,20.50
2011,08,11,12,29,20.50
2011,08,11,12,30,20.40
2011,08,11,12,31,20.40
2011,08,11,12,32,20.40
2011,08,11,12,33,20.30
2011,08,11,12,34,20.20
2011,08,11,12,35,20.30
2011,08,11,12,36,20.30
2011,08,11,12,37,20.30
2011,08,11,12,38,20.20
2011,08,11,12,39,20.20
2011,08,11,12,40,20.20
2011,08,11,12,41,20.20
2011,08,11,12,42,20.30
2011,08,11,12,43,20.20
2011,08,11,12,44,20.20
2011,08,11,12,45,20.30
2011,08,11,12,46,20.40
2011,08,11,12,47,20.50
2011,08,11,12,48,20.60
2011,08,11,12,49,20.70
2011,08,11,12,50,20.80
2011,08,11,12,51,20.80
2011,08,11,12,52,20.90
2011,08,11,12,53,21.00
2011,08,11,12,54,21.10
2011,08,11,12,55,21.10
2011,08,11,12,56,21.10
2011,08,11,12,57,21.10
2011,08,11,12,58,21.00
2011,08,11,12,59,21.00
2011,08,11,13,00,20.90
2011,08,11,13,01,21.00
2011,08,11,13,02,21.10
2011,08,11,13,03,21.20
2011,08,11,13,04,21.20
2011,08,11,13,05,21.20
2011,08,11,13,06,21.20
2011,08,11,13,07,21.20
2011,08,11,13,08,21.20
2011,08,11,13,09,21.10
2011,08,11,13,10,21.10
2011,08,11,13,11,21.20
2011,08,11,13,12,21.20
2011,08,11,13,13,21.20
2011,08,11,13,14,21.30
2011,08,11,13,15,21.40
2011,08,11,13,16,21.40
2011,08,11,13,17,21.40
2011,08,11,13,18,21.40
2011,08,11,13,19,21.40
2011,08,11,13,20,21.40
2011,08,11,13,21,21.50
2011,08,11,13,22,21.60
2011,08,11,13,23,21.70
2011,08,11,13,24,21.80
2011,08,11,13,25,21.80
2011,08,11,13,26,21.90
2011,08,11,13,27,21.90
2011,08,11,13,28,21.90
2011,08,11,13,29,21.90
2011,08,11,13,30,21.80
2011,08,11,13,31,21.60
2011,08,11,13,32,21.50
2011,08,11,13,33,21.40
2011,08,11,13,34,21.40
2011,08,11,13,35,21.40
2011,08,11,13,36,21.40
2011,08,11,13,37,21.40
2011,08,11,13,38,21.50
2011,08,11,13,39,21.50
2011,08,11,13,40,21.60
2011,08,11,13,41,21.60
2011,08,11,13,42,21.60
2011,08,11,13,43,21.70
2011,08,11,13,44,21.70
2011,08,11,13,45,21.80
2011,08,11,13,46,21.80
2011,08,11,13,47,21.90
2011,08,11,13,48,21.80
2011,08,11,13,49,21.80
2011,08,11,13,50,21.80
2011,08,11,13,51,21.80
2011,08,11,13,52,21.90
2011,08,11,13,53,21.90
2011,08,11,13,54,21.90
2011,08,11,13,55,21.90
2011,08,11,13,56,21.90
2011,08,11,13,57,22.00
2011,08,11,13,58,22.00
2011,08,11,13,59,22.10
2011,08,11,14,00,22.00
2011,08,11,14,01,21.90
2011,08,11,14,02,21.90
2011,08,11,14,03,21.80
2011,08,11,14,04,21.80
2011,08,11,14,05,21.80
2011,08,11,14,06,21.70
2011,08,11,14,07,21.70
2011,08,11,14,08,21.70
2011,08,11,14,09,21.60
2011,08,11,14,10,21.60
2011,08,11,14,11,21.40
2011,08,11,14,12,21.30
2011,08,11,14,13,21.20
2011,08,11,14,14,21.10
2011,08,11,14,15,21.10
2011,08,11,14,16,21.20
2011,08,11,14,17,21.30
2011,08,11,14,18,21.30
2011,08,11,14,19,21.40
2011,08,11,14,20,21.30
2011,08,11,14,21,21.30
2011,08,11,14,22,21.20
2011,08,11,14,23,21.20
2011,08,11,14,24,21.20
2011,08,11,14,25,21.10
2011,08,11,14,26,21.00
2011,08,11,14,27,20.90
2011,08,11,14,28,20.90
2011,08,11,14,29,20.80
2011,08,11,14,30,20.80
2011,08,11,14,31,20.90
2011,08,11,14,32,20.90
2011,08,11,14,33,21.00
2011,08,11,14,34,21.10
2011,08,11,14,35,21.20
2011,08,11,14,36,21.30
2011,08,11,14,37,21.40
2011,08,11,14,38,21.50
2011,08,11,14,39,21.50
2011,08,11,14,40,21.60
2011,08,11,14,41,21.60
2011,08,11,14,42,21.60
2011,08,11,14,43,21.60
2011,08,11,14,44,21.70
2011,08,11,14,45,21.70
2011,08,11,14,46,21.80
2011,08,11,14,47,21.70
2011,08,11,14,48,21.70
2011,08,11,14,49,21.70
2011,08,11,14,50,21.70
2011,08,11,14,51,21.70
2011,08,11,14,52,21.80
2011,08,11,14,53,21.80
2011,08,11,14,54,21.80
2011,08,11,14,55,21.90
2011,08,11,14,56,22.00
2011,08,11,14,57,22.00
2011,08,11,14,58,21.90
2011,08,11,14,59,21.80
2011,08,11,15,00,21.70
2011,08,11,15,01,21.70
2011,08,11,15,02,21.60
2011,08,11,15,03,21.60
2011,08,11,15,04,21.50
2011,08,11,15,05,21.40
2011,08,11,15,06,21.40
2011,08,11,15,07,21.40
2011,08,11,15,08,21.40
2011,08,11,15,09,21.40
2011,08,11,15,10,21.40
2011,08,11,15,11,21.40
2011,08,11,15,12,21.50
2011,08,11,15,13,21.50
2011,08,11,15,14,21.60
2011,08,11,15,15,21.60
2011,08,11,15,16,21.60
2011,08,11,15,17,21.60
2011,08,11,15,18,21.60
2011,08,11,15,19,21.60
2011,08,11,15,20,21.60
2011,08,11,15,21,21.50
2011,08,11,15,22,21.60
2011,08,11,15,23,21.50
2011,08,11,15,24,21.40
2011,08,11,15,25,21.40
2011,08,11,15,26,21.40
2011,08,11,15,27,21.40
2011,08,11,15,28,21.40
2011,08,11,15,29,21.50
2011,08,11,15,30,21.50
2011,08,11,15,31,21.50
2011,08,11,15,32,21.50
2011,08,11,15,33,21.50
2011,08,11,15,34,21.40
2011,08,11,15,35,21.40
2011,08,11,15,36,21.30
2011,08,11,15,37,21.30
2011,08,11,15,38,21.30
2011,08,11,15,39,21.30
2011,08,11,15,40,21.30
2011,08,11,15,41,21.30
2011,08,11,15,42,21.30
2011,08,11,15,43,21.20
2011,08,11,15,44,21.20
2011,08,11,15,45,21.20
2011,08,11,15,46,21.20
2011,08,11,15,47,21.10
2011,08,11,15,48,21.10
2011,08,11,15,49,21.00
2011,08,11,15,50,21.00
2011,08,11,15,51,21.00
2011,08,11,15,52,20.90
2011,08,11,15,53,20.90
2011,08,11,15,54,20.90
2011,08,11,15,55,20.90
2011,08,11,15,56,20.90
2011,08,11,15,57,20.90
2011,08,11,15,58,20.90
2011,08,11,15,59,20.90
2011,08,11,16,00,20.90
2011,08,11,16,01,20.90
2011,08,11,16,02,20.90
2011,08,11,16,03,20.80
2011,08,11,16,04,20.80
2011,08,11,16,05,20.80
2011,08,11,16,06,20.80
2011,08,11,16,07,20.80
2011,08,11,16,08,20.80
2011,08,11,16,09,20.80
2011,08,11,16,10,20.70
2011,08,11,16,11,20.70
2011,08,11,16,12,20.70
2011,08,11,16,13,20.70
2011,08,11,16,14,20.70
2011,08,11,16,15,20.70
2011,08,11,16,16,20.70
2011,08,11,16,17,20.60
2011,08,11,16,18,20.60
2011,08,11,16,19,20.60
2011,08,11,16,20,20.60
2011,08,11,16,21,20.60
2011,08,11,16,22,20.60
2011,08,11,16,23,20.50
2011,08,11,16,24,20.50
2011,08,11,16,25,20.50
2011,08,11,16,26,20.50
2011,08,11,16,27,20.50
2011,08,11,16,28,20.40
2011,08,11,16,29,20.40
2011,08,11,16,30,20.40
2011,08,11,16,31,20.30
2011,08,11,16,32,20.30
2011,08,11,16,33,20.30
2011,08,11,16,34,20.30
2011,08,11,16,35,20.30
2011,08,11,16,36,20.30
2011,08,11,16,37,20.30
2011,08,11,16,38,20.30
2011,08,11,16,39,20.30
2011,08,11,16,40,20.30
2011,08,11,16,41,20.30
2011,08,11,16,42,20.30
2011,08,11,16,43,20.30
2011,08,11,16,44,20.30
2011,08,11,16,45,20.20
2011,08,11,16,46,20.20
2011,08,11,16,47,20.20
2011,08,11,16,48,20.20
2011,08,11,16,49,20.20
2011,08,11,16,50,20.20
2011,08,11,16,51,20.20
2011,08,11,16,52,20.20
2011,08,11,16,53,20.20
2011,08,11,16,54,20.20
2011,08,11,16,55,20.20
2011,08,11,16,56,20.20
2011,08,11,16,57,20.20
2011,08,11,16,58,20.30
2011,08,11,16,59,20.30
2011,08,11,17,00,20.30
2011,08,11,17,01,20.30
2011,08,11,17,02,20.30
2011,08,11,17,03,20.30
2011,08,11,17,04,20.30
2011,08,11,17,05,20.30
2011,08,11,17,06,20.20
2011,08,11,17,07,20.20
2011,08,11,17,08,20.20
2011,08,11,17,09,20.20
2011,08,11,17,10,20.20
2011,08,11,17,11,20.20
2011,08,11,17,12,20.20
2011,08,11,17,13,20.10
2011,08,11,17,14,20.10
2011,08,11,17,15,20.10
2011,08,11,17,16,20.00
2011,08,11,17,17,20.00
2011,08,11,17,18,20.00
2011,08,11,17,19,20.00
2011,08,11,17,20,19.90
2011,08,11,17,21,19.90
2011,08,11,17,22,19.90
2011,08,11,17,23,19.90
2011,08,11,17,24,19.90
2011,08,11,17,25,19.90
2011,08,11,17,26,19.90
2011,08,11,17,27,19.90
2011,08,11,17,28,19.90
2011,08,11,17,29,19.90
2011,08,11,17,30,19.90
2011,08,11,17,31,19.90
2011,08,11,17,32,19.90